| time (UTC) | temp F | wind direction | speed knots | gust knots | rain 1hr in | rain 24hr in | rain mn in | humidity % | barometer mb |
| 20260507181232 | 51 | 343 | 1.7 | 5.2 | 0.00 | 0.00 | 0.00 | 80 | 1015.4 |
| 20260507180738 | 52 | 13 | 1.7 | 3.5 | 0.00 | 0.00 | 0.00 | 80 | 1015.3 |
| 20260507180243 | 52 | 354 | 1.7 | 2.6 | 0.00 | 0.00 | 0.00 | 80 | 1015.2 |
| 20260507175749 | 52 | 332 | 1.7 | 4.3 | 0.00 | 0.00 | 0.00 | 80 | 1015.3 |
| 20260507175255 | 52 | 329 | 1.7 | 5.2 | 0.00 | 0.00 | 0.00 | 80 | 1015.1 |
| 20260507174801 | 52 | 318 | 1.7 | 4.3 | 0.00 | 0.00 | 0.00 | 80 | 1015.0 |
| 20260507174306 | 52 | 6 | 1.7 | 4.3 | 0.00 | 0.00 | 0.00 | 79 | 1015.0 |
| 20260507173812 | 52 | 333 | 0.9 | 2.6 | 0.00 | 0.00 | 0.00 | 79 | 1014.9 |
| 20260507172823 | 53 | 175 | 0.9 | 2.6 | 0.00 | 0.00 | 0.00 | 79 | 1014.8 |
| 20260507172329 | 53 | 327 | 0.9 | 1.7 | 0.00 | 0.00 | 0.00 | 79 | 1014.8 |
| 20260507171835 | 54 | 6 | 1.7 | 2.6 | 0.00 | 0.00 | 0.00 | 79 | 1014.8 |
| 20260507171341 | 54 | 9 | 1.7 | 2.6 | 0.00 | 0.00 | 0.00 | 78 | 1014.8 |
| 20260507170846 | 54 | 356 | 0.9 | 1.7 | 0.00 | 0.00 | 0.00 | 78 | 1014.7 |
| 20260507170352 | 54 | 335 | 0.9 | 2.6 | 0.00 | 0.00 | 0.00 | 77 | 1014.7 |
| 20260507165857 | 55 | 282 | 0.9 | 1.7 | 0.00 | 0.00 | 0.00 | 77 | 1014.6 |
| 20260507165403 | 55 | 192 | 0.9 | 2.6 | 0.00 | 0.00 | 0.00 | 77 | 1014.6 |
| 20260507164909 | 55 | 46 | 1.7 | 2.6 | 0.00 | 0.00 | 0.00 | 77 | 1014.5 |
| 20260507164414 | 55 | 70 | 1.7 | 2.6 | 0.00 | 0.00 | 0.00 | 77 | 1014.5 |
| 20260507163920 | 56 | 280 | 1.7 | 3.5 | 0.00 | 0.00 | 0.00 | 76 | 1014.5 |
| 20260507163425 | 56 | 167 | 1.7 | 2.6 | 0.00 | 0.00 | 0.00 | 77 | 1014.3 |
| 20260507162931 | 56 | 330 | 1.7 | 4.3 | 0.00 | 0.00 | 0.00 | 76 | 1014.3 |
| 20260507162436 | 56 | 172 | 1.7 | 4.3 | 0.00 | 0.00 | 0.00 | 76 | 1014.3 |
| 20260507161942 | 56 | 338 | 1.7 | 4.3 | 0.00 | 0.00 | 0.00 | 76 | 1014.3 |
| 20260507161448 | 56 | 322 | 1.7 | 4.3 | 0.00 | 0.00 | 0.00 | 75 | 1014.2 |
| 20260507160953 | 56 | 314 | 2.6 | 5.2 | 0.00 | 0.00 | 0.00 | 75 | 1014.3 |
| 20260507160459 | 57 | 318 | 2.6 | 5.2 | 0.00 | 0.00 | 0.00 | 76 | 1014.3 |
| 20260507160004 | 57 | 308 | 3.5 | 6.1 | 0.00 | 0.00 | 0.00 | 77 | 1014.3 |
| 20260507155510 | 58 | 323 | 2.6 | 4.3 | 0.00 | 0.00 | 0.00 | 76 | 1014.2 |
| 20260507155015 | 58 | 310 | 2.6 | 3.5 | 0.00 | 0.00 | 0.00 | 75 | 1014.1 |
| 20260507154521 | 58 | 330 | 2.6 | 6.1 | 0.00 | 0.00 | 0.00 | 74 | 1014.1 |
| 20260507154026 | 58 | 313 | 2.6 | 3.5 | 0.00 | 0.00 | 0.00 | 74 | 1014.0 |
| 20260507153532 | 59 | 329 | 2.6 | 5.2 | 0.00 | 0.00 | 0.00 | 73 | 1013.9 |
| 20260507152542 | 58 | 322 | 2.6 | 4.3 | 0.00 | 0.00 | 0.00 | 73 | 1013.9 |
| 20260507152048 | 58 | 313 | 1.7 | 4.3 | 0.00 | 0.00 | 0.00 | 72 | 1013.8 |
| 20260507151553 | 58 | 328 | 2.6 | 4.3 | 0.00 | 0.00 | 0.00 | 72 | 1013.9 |
| 20260507150604 | 59 | 357 | 1.7 | 3.5 | 0.00 | 0.00 | 0.00 | 70 | 1013.8 |
| 20260507150110 | 59 | 15 | 2.6 | 5.2 | 0.00 | 0.00 | 0.00 | 70 | 1013.8 |
| 20260507145120 | 59 | 332 | 2.6 | 5.2 | 0.00 | 0.00 | 0.00 | 70 | 1013.8 |
| 20260507144626 | 59 | 344 | 3.5 | 7.8 | 0.00 | 0.00 | 0.00 | 70 | 1013.7 |
| 20260507144131 | 59 | 330 | 2.6 | 7.0 | 0.00 | 0.00 | 0.00 | 70 | 1013.6 |
| 20260507143637 | 59 | 333 | 3.5 | 7.0 | 0.00 | 0.00 | 0.00 | 70 | 1013.6 |
| 20260507143142 | 59 | 325 | 4.3 | 7.0 | 0.00 | 0.00 | 0.00 | 70 | 1013.6 |
| 20260507142153 | 59 | 322 | 3.5 | 7.8 | 0.00 | 0.00 | 0.00 | 69 | 1013.6 |
| 20260507141658 | 59 | 311 | 5.2 | 8.7 | 0.00 | 0.00 | 0.00 | 67 | 1013.5 |
| 20260507141204 | 61 | 309 | 5.2 | 10.4 | 0.00 | 0.00 | 0.00 | 64 | 1013.4 |
| 20260507140710 | 62 | 313 | 4.3 | 8.7 | 0.00 | 0.00 | 0.00 | 62 | 1013.4 |
| 20260507140214 | 63 | 285 | 4.3 | 8.7 | 0.00 | 0.00 | 0.00 | 60 | 1013.3 |
| 20260507135719 | 64 | 315 | 3.5 | 7.8 | 0.00 | 0.00 | 0.00 | 59 | 1013.1 |
| 20260507135224 | 65 | 297 | 4.3 | 7.0 | 0.00 | 0.00 | 0.00 | 58 | 1013.0 |
| 20260507134234 | 66 | 257 | 3.5 | 6.1 | 0.00 | 0.00 | 0.00 | 62 | 1013.1 |
| 20260507133740 | 67 | 252 | 3.5 | 7.8 | 0.00 | 0.00 | 0.00 | 62 | 1013.0 |
| 20260507132749 | 66 | 266 | 5.2 | 7.8 | 0.00 | 0.00 | 0.00 | 63 | 1013.1 |
| 20260507132255 | 65 | 246 | 3.5 | 6.1 | 0.00 | 0.00 | 0.00 | 62 | 1013.0 |
| 20260507131305 | 64 | 298 | 3.5 | 7.0 | 0.00 | 0.00 | 0.00 | 61 | 1013.0 |
| 20260507130810 | 65 | 310 | 2.6 | 4.3 | 0.00 | 0.00 | 0.00 | 61 | 1013.0 |
| 20260507130315 | 65 | 293 | 1.7 | 4.3 | 0.00 | 0.00 | 0.00 | 62 | 1013.0 |
| 20260507125820 | 65 | 298 | 3.5 | 5.2 | 0.00 | 0.00 | 0.00 | 62 | 1013.0 |
| 20260507124831 | 66 | 279 | 3.5 | 7.0 | 0.00 | 0.00 | 0.00 | 63 | 1013.0 |
| 20260507124336 | 66 | 260 | 5.2 | 8.7 | 0.00 | 0.00 | 0.00 | 63 | 1013.0 |
| 20260507123841 | 66 | 291 | 3.5 | 6.1 | 0.00 | 0.00 | 0.00 | 61 | 1012.9 |
| 20260507123346 | 66 | 268 | 3.5 | 6.1 | 0.00 | 0.00 | 0.00 | 64 | 1012.9 |
| 20260507122851 | 65 | 279 | 3.5 | 7.0 | 0.00 | 0.00 | 0.00 | 63 | 1012.9 |
| 20260507121901 | 65 | 275 | 3.5 | 7.0 | 0.00 | 0.00 | 0.00 | 62 | 1012.9 |
| 20260507121407 | 65 | 253 | 2.6 | 9.6 | 0.00 | 0.00 | 0.00 | 63 | 1012.8 |
| 20260507120912 | 64 | 284 | 3.5 | 6.1 | 0.00 | 0.00 | 0.00 | 62 | 1012.8 |
| 20260507115922 | 64 | 272 | 4.3 | 7.0 | 0.00 | 0.00 | 0.00 | 63 | 1012.8 |
| 20260507115428 | 64 | 257 | 5.2 | 9.6 | 0.00 | 0.00 | 0.00 | 64 | 1012.8 |
| 20260507114933 | 64 | 231 | 4.3 | 7.0 | 0.00 | 0.00 | 0.00 | 64 | 1012.8 |
| 20260507114438 | 64 | 279 | 3.5 | 6.1 | 0.00 | 0.00 | 0.00 | 64 | 1012.8 |
| 20260507113944 | 64 | 285 | 4.3 | 7.0 | 0.00 | 0.00 | 0.00 | 64 | 1012.8 |
| 20260507113449 | 64 | 255 | 6.1 | 11.3 | 0.00 | 0.00 | 0.00 | 64 | 1012.7 |
| 20260507112954 | 64 | 264 | 4.3 | 8.7 | 0.00 | 0.00 | 0.00 | 65 | 1012.7 |
| 20260507112459 | 64 | 291 | 4.3 | 8.7 | 0.00 | 0.00 | 0.00 | 65 | 1012.6 |
| 20260507112005 | 64 | 282 | 5.2 | 7.8 | 0.00 | 0.00 | 0.00 | 63 | 1012.6 |
| 20260507111510 | 63 | 286 | 5.2 | 7.8 | 0.00 | 0.00 | 0.00 | 63 | 1012.4 |
| 20260507111015 | 62 | 300 | 4.3 | 8.7 | 0.00 | 0.00 | 0.00 | 66 | 1012.6 |
| 20260507110521 | 61 | 276 | 4.3 | 7.0 | 0.00 | 0.00 | 0.00 | 67 | 1012.6 |
| 20260507110026 | 62 | 296 | 4.3 | 7.8 | 0.00 | 0.00 | 0.00 | 66 | 1012.4 |
| 20260507105037 | 63 | 306 | 4.3 | 6.1 | 0.00 | 0.00 | 0.00 | 65 | 1012.5 |
| 20260507104047 | 65 | 277 | 3.5 | 6.1 | 0.00 | 0.00 | 0.00 | 67 | 1012.4 |
| 20260507103552 | 65 | 246 | 4.3 | 12.2 | 0.00 | 0.00 | 0.00 | 67 | 1012.4 |
| 20260507103057 | 66 | 264 | 3.5 | 6.1 | 0.00 | 0.00 | 0.00 | 67 | 1012.3 |
| 20260507102108 | 65 | 289 | 3.5 | 7.8 | 0.00 | 0.00 | 0.00 | 66 | 1012.2 |
| 20260507101613 | 64 | 287 | 3.5 | 7.0 | 0.00 | 0.00 | 0.00 | 69 | 1012.2 |
| 20260507101118 | 62 | 282 | 2.6 | 4.3 | 0.00 | 0.00 | 0.00 | 71 | 1012.2 |
| 20260507100624 | 61 | 270 | 2.6 | 5.2 | 0.00 | 0.00 | 0.00 | 73 | 1012.3 |
| 20260507100129 | 60 | 291 | 2.6 | 3.5 | 0.00 | 0.00 | 0.00 | 75 | 1012.3 |
| 20260507095635 | 59 | 312 | 2.6 | 4.3 | 0.00 | 0.00 | 0.00 | 76 | 1012.3 |
| 20260507095140 | 59 | 318 | 2.6 | 4.3 | 0.00 | 0.00 | 0.00 | 76 | 1012.3 |
| 20260507094646 | 59 | 299 | 2.6 | 3.5 | 0.00 | 0.00 | 0.00 | 76 | 1012.3 |
| 20260507094151 | 59 | 315 | 2.6 | 5.2 | 0.00 | 0.00 | 0.00 | 76 | 1012.3 |
| 20260507093657 | 59 | 303 | 3.5 | 5.2 | 0.00 | 0.00 | 0.00 | 76 | 1012.2 |
| 20260507093202 | 60 | 318 | 3.5 | 6.1 | 0.00 | 0.00 | 0.00 | 75 | 1012.1 |
| 20260507092708 | 60 | 324 | 4.3 | 6.1 | 0.00 | 0.00 | 0.00 | 74 | 1012.0 |
| 20260507092213 | 61 | 321 | 2.6 | 4.3 | 0.00 | 0.00 | 0.00 | 74 | 1012.1 |
| 20260507091718 | 61 | 321 | 4.3 | 7.0 | 0.00 | 0.00 | 0.00 | 74 | 1012.0 |
| 20260507091224 | 61 | 309 | 2.6 | 6.1 | 0.00 | 0.00 | 0.00 | 74 | 1012.0 |
| 20260507090729 | 61 | 312 | 4.3 | 6.1 | 0.00 | 0.00 | 0.00 | 73 | 1012.0 |
| 20260507085739 | 64 | 309 | 4.3 | 7.8 | 0.00 | 0.00 | 0.00 | 68 | 1011.7 |
| 20260507084749 | 67 | 255 | 6.1 | 11.3 | 0.00 | 0.00 | 0.00 | 67 | 1011.5 |
| 20260507084254 | 68 | 245 | 7.8 | 12.2 | 0.00 | 0.00 | 0.00 | 65 | 1011.5 |
| 20260507083759 | 68 | 245 | 7.0 | 11.3 | 0.00 | 0.00 | 0.00 | 66 | 1011.3 |
| 20260507083304 | 67 | 264 | 5.2 | 8.7 | 0.00 | 0.00 | 0.00 | 67 | 1011.3 |
| 20260507082809 | 67 | 238 | 7.8 | 16.5 | 0.00 | 0.00 | 0.00 | 66 | 1011.3 |
| 20260507082315 | 67 | 270 | 5.2 | 10.4 | 0.00 | 0.00 | 0.00 | 67 | 1011.1 |
| 20260507081819 | 66 | 234 | 4.3 | 7.0 | 0.00 | 0.00 | 0.00 | 70 | 1011.1 |
| 20260507081324 | 65 | 222 | 5.2 | 8.7 | 0.00 | 0.00 | 0.00 | 71 | 1011.2 |
| 20260507080830 | 64 | 257 | 4.3 | 7.8 | 0.00 | 0.00 | 0.00 | 72 | 1011.1 |
| 20260507080335 | 62 | 267 | 4.3 | 7.0 | 0.00 | 0.00 | 0.00 | 74 | 1011.1 |
| 20260507075346 | 60 | 228 | 7.0 | 10.4 | 0.00 | 0.00 | 0.00 | 74 | 1011.2 |
| 20260507074851 | 60 | 245 | 5.2 | 11.3 | 0.00 | 0.00 | 0.00 | 76 | 1011.2 |
| 20260507074357 | 60 | 249 | 4.3 | 7.0 | 0.00 | 0.00 | 0.00 | 78 | 1011.1 |
| 20260507073902 | 59 | 258 | 4.3 | 6.1 | 0.00 | 0.00 | 0.00 | 78 | 1011.0 |
| 20260507073408 | 59 | 282 | 4.3 | 7.0 | 0.00 | 0.00 | 0.00 | 78 | 1011.0 |
| 20260507072913 | 59 | 283 | 4.3 | 7.8 | 0.00 | 0.00 | 0.00 | 78 | 1010.8 |
| 20260507072419 | 59 | 285 | 4.3 | 6.1 | 0.00 | 0.00 | 0.00 | 80 | 1010.7 |
| 20260507071924 | 59 | 270 | 4.3 | 7.0 | 0.00 | 0.00 | 0.00 | 82 | 1010.8 |
| 20260507071430 | 58 | 248 | 3.5 | 5.2 | 0.00 | 0.00 | 0.00 | 83 | 1010.9 |
| 20260507070936 | 58 | 267 | 3.5 | 6.1 | 0.00 | 0.00 | 0.00 | 84 | 1010.9 |
| 20260507070441 | 57 | 268 | 3.5 | 6.1 | 0.00 | 0.00 | 0.00 | 84 | 1010.8 |
| 20260507065948 | 57 | 240 | 3.5 | 6.1 | 0.00 | 0.00 | 0.00 | 83 | 1010.8 |
| 20260507065453 | 57 | 239 | 3.5 | 6.1 | 0.00 | 0.00 | 0.00 | 83 | 1010.8 |
| 20260507064958 | 57 | 237 | 2.6 | 5.2 | 0.00 | 0.00 | 0.00 | 83 | 1010.8 |
| 20260507064010 | 56 | 267 | 3.5 | 6.1 | 0.00 | 0.00 | 0.00 | 84 | 1010.7 |
| 20260507062527 | 55 | 264 | 4.3 | 6.1 | 0.00 | 0.00 | 0.00 | 85 | 1010.6 |
| 20260507062032 | 55 | 239 | 3.5 | 6.1 | 0.00 | 0.00 | 0.00 | 86 | 1010.5 |
| 20260507061538 | 55 | 254 | 3.5 | 6.1 | 0.00 | 0.00 | 0.00 | 86 | 1010.5 |
| 20260507061044 | 55 | 251 | 3.5 | 6.1 | 0.00 | 0.00 | 0.00 | 86 | 1010.4 |
| 20260507060549 | 55 | 234 | 3.5 | 6.1 | 0.00 | 0.00 | 0.00 | 85 | 1010.4 |
| 20260507060055 | 54 | 248 | 2.6 | 5.2 | 0.00 | 0.00 | 0.00 | 85 | 1010.3 |
| 20260507055601 | 54 | 237 | 2.6 | 4.3 | 0.00 | 0.00 | 0.00 | 85 | 1010.3 |
| 20260507055107 | 54 | 240 | 2.6 | 5.2 | 0.00 | 0.00 | 0.00 | 85 | 1010.2 |
| 20260507054613 | 54 | 262 | 1.7 | 2.6 | 0.00 | 0.00 | 0.00 | 86 | 1010.2 |
| 20260507054118 | 54 | 262 | 1.7 | 2.6 | 0.00 | 0.00 | 0.00 | 85 | 1010.1 |
| 20260507053624 | 54 | 243 | 2.6 | 4.3 | 0.00 | 0.00 | 0.00 | 85 | 1010.2 |
| 20260507053130 | 54 | 254 | 2.6 | 4.3 | 0.00 | 0.00 | 0.00 | 85 | 1010.1 |
| 20260507052636 | 54 | 273 | 0.9 | 2.6 | 0.00 | 0.00 | 0.00 | 88 | 1010.0 |
| 20260507052141 | 54 | 285 | 1.7 | 3.5 | 0.00 | 0.00 | 0.00 | 88 | 1009.9 |
| 20260507051153 | 54 | 279 | 1.7 | 4.3 | 0.00 | 0.00 | 0.00 | 89 | 1009.8 |
| 20260507050659 | 54 | 289 | 1.7 | 2.6 | 0.00 | 0.00 | 0.00 | 89 | 1009.8 |
| 20260507050205 | 54 | 297 | 1.7 | 2.6 | 0.00 | 0.00 | 0.00 | 90 | 1009.8 |
| 20260507045710 | 53 | 291 | 0.9 | 2.6 | 0.00 | 0.00 | 0.00 | 91 | 1009.7 |
| 20260507045216 | 53 | 301 | 0.9 | 1.7 | 0.00 | 0.00 | 0.00 | 92 | 1009.6 |
| 20260507044722 | 53 | 303 | 1.7 | 4.3 | 0.00 | 0.00 | 0.00 | 93 | 1009.5 |
| 20260507044228 | 53 | 315 | 2.6 | 4.3 | 0.00 | 0.00 | 0.00 | 95 | 1009.4 |
| 20260507043734 | 53 | 318 | 3.5 | 6.1 | 0.00 | 0.00 | 0.00 | 95 | 1009.4 |
| 20260507043239 | 53 | 318 | 2.6 | 5.2 | 0.00 | 0.00 | 0.00 | 93 | 1009.3 |
| 20260507042745 | 53 | 321 | 2.6 | 4.3 | 0.00 | 0.00 | 0.00 | 91 | 1009.4 |
| 20260507042251 | 53 | 315 | 2.6 | 4.3 | 0.00 | 0.00 | 0.00 | 90 | 1009.3 |
| 20260507041757 | 54 | 315 | 2.6 | 6.1 | 0.00 | 0.00 | 0.00 | 90 | 1009.3 |
| 20260507041303 | 54 | 303 | 2.6 | 4.3 | 0.00 | 0.00 | 0.00 | 94 | 1009.2 |
| 20260507040808 | 52 | 305 | 2.6 | 4.3 | 0.00 | 0.00 | 0.00 | 97 | 1009.2 |
| 20260507040314 | 52 | 306 | 3.5 | 5.2 | 0.00 | 0.00 | 0.00 | 100 | 1009.1 |
| 20260507035820 | 52 | 328 | 3.5 | 5.2 | 0.00 | 0.00 | 0.00 | 100 | 1009.1 |
| 20260507035326 | 52 | 314 | 4.3 | 6.1 | 0.00 | 0.00 | 0.00 | 100 | 1009.1 |
| 20260507034832 | 52 | 303 | 4.3 | 7.0 | 0.00 | 0.00 | 0.00 | 100 | 1009.0 |
| 20260507034338 | 52 | 324 | 4.3 | 6.1 | 0.00 | 0.00 | 0.00 | 100 | 1008.9 |
| 20260507033844 | 52 | 306 | 4.3 | 7.0 | 0.00 | 0.00 | 0.00 | 99 | 1008.8 |
| 20260507033350 | 52 | 306 | 4.3 | 6.1 | 0.00 | 0.00 | 0.00 | 95 | 1008.9 |
| 20260507032855 | 52 | 288 | 4.3 | 7.8 | 0.00 | 0.00 | 0.00 | 94 | 1009.0 |
| 20260507032401 | 52 | 300 | 3.5 | 6.1 | 0.00 | 0.00 | 0.00 | 92 | 1009.0 |
| 20260507031907 | 52 | 298 | 3.5 | 6.1 | 0.00 | 0.00 | 0.00 | 92 | 1009.0 |
| 20260507031413 | 52 | 297 | 3.5 | 5.2 | 0.00 | 0.00 | 0.00 | 90 | 1008.9 |
| 20260507030919 | 52 | 279 | 2.6 | 4.3 | 0.00 | 0.00 | 0.00 | 87 | 1008.9 |
| 20260507030425 | 52 | 279 | 3.5 | 5.2 | 0.00 | 0.00 | 0.00 | 88 | 1008.9 |
| 20260507025931 | 52 | 324 | 2.6 | 3.5 | 0.00 | 0.00 | 0.00 | 89 | 1008.9 |
| 20260507025437 | 52 | 299 | 3.5 | 4.3 | 0.00 | 0.00 | 0.00 | 89 | 1008.8 |
| 20260507024942 | 52 | 305 | 2.6 | 5.2 | 0.00 | 0.00 | 0.00 | 88 | 1008.8 |
| 20260507024448 | 52 | 306 | 2.6 | 3.5 | 0.00 | 0.00 | 0.00 | 86 | 1008.8 |
| 20260507023954 | 52 | 282 | 1.7 | 3.5 | 0.00 | 0.00 | 0.00 | 85 | 1008.8 |
| 20260507023500 | 53 | 273 | 2.6 | 4.3 | 0.00 | 0.00 | 0.00 | 84 | 1008.8 |
| 20260507022017 | 53 | 302 | 1.7 | 2.6 | 0.00 | 0.00 | 0.00 | 88 | 1008.7 |
| 20260507021523 | 53 | 318 | 2.6 | 3.5 | 0.00 | 0.00 | 0.00 | 91 | 1008.6 |
| 20260507021029 | 54 | 315 | 3.5 | 5.2 | 0.00 | 0.00 | 0.00 | 91 | 1008.6 |
| 20260507020535 | 54 | 316 | 2.6 | 3.5 | 0.00 | 0.00 | 0.00 | 90 | 1008.6 |
| 20260507020040 | 54 | 305 | 2.6 | 4.3 | 0.00 | 0.00 | 0.00 | 91 | 1008.6 |
| 20260507015546 | 54 | 306 | 2.6 | 4.3 | 0.00 | 0.00 | 0.00 | 89 | 1008.7 |
| 20260507015052 | 54 | 321 | 2.6 | 4.3 | 0.00 | 0.00 | 0.00 | 89 | 1008.5 |
| 20260507014558 | 54 | 301 | 2.6 | 4.3 | 0.00 | 0.00 | 0.00 | 89 | 1008.5 |
| 20260507014103 | 54 | 277 | 1.7 | 2.6 | 0.00 | 0.00 | 0.00 | 87 | 1008.5 |
| 20260507013609 | 54 | 276 | 1.7 | 4.3 | 0.00 | 0.00 | 0.00 | 87 | 1008.6 |
| 20260507013115 | 55 | 303 | 1.7 | 2.6 | 0.00 | 0.00 | 0.00 | 87 | 1008.6 |
| 20260507012621 | 55 | 295 | 1.7 | 2.6 | 0.00 | 0.00 | 0.00 | 88 | 1008.5 |
| 20260507012126 | 55 | 316 | 1.7 | 2.6 | 0.00 | 0.00 | 0.00 | 89 | 1008.4 |
| 20260507011632 | 55 | 309 | 2.6 | 2.6 | 0.00 | 0.00 | 0.00 | 90 | 1008.4 |
| 20260507011138 | 55 | 314 | 2.6 | 2.6 | 0.00 | 0.00 | 0.00 | 90 | 1008.4 |
| 20260507010644 | 55 | 318 | 2.6 | 2.6 | 0.00 | 0.00 | 0.00 | 89 | 1008.3 |
| 20260507010149 | 55 | 303 | 1.7 | 2.6 | 0.00 | 0.00 | 0.00 | 88 | 1008.3 |
| 20260507005655 | 55 | 309 | 0.9 | 2.6 | 0.00 | 0.00 | 0.00 | 86 | 1008.2 |
| 20260507005201 | 54 | 315 | 0.9 | 1.7 | 0.00 | 0.00 | 0.00 | 86 | 1008.1 |
| 20260507004707 | 54 | 312 | 1.7 | 2.6 | 0.00 | 0.00 | 0.00 | 87 | 1008.1 |
| 20260507004213 | 54 | 312 | 2.6 | 3.5 | 0.00 | 0.00 | 0.00 | 88 | 1008.2 |
| 20260507003718 | 54 | 279 | 1.7 | 2.6 | 0.00 | 0.00 | 0.00 | 85 | 1008.2 |
| 20260507003224 | 54 | 225 | 0.9 | 1.7 | 0.00 | 0.00 | 0.00 | 83 | 1008.1 |
| 20260507002730 | 54 | 249 | 0.9 | 1.7 | 0.00 | 0.00 | 0.00 | 83 | 1008.0 |
| 20260507001741 | 54 | 244 | 0.9 | 2.6 | 0.00 | 0.00 | 0.00 | 83 | 1007.9 |
| 20260507001247 | 54 | 264 | 0.9 | 0.9 | 0.00 | 0.00 | 0.00 | 83 | 1007.9 |
| 20260507000753 | 54 | 330 | 0.9 | 1.7 | 0.00 | 0.00 | 0.00 | 83 | 1007.8 |
| 20260506235805 | 54 | 4 | 0.9 | 1.7 | 0.00 | 0.00 | 0.00 | 82 | 1007.6 |
| 20260506235311 | 54 | 341 | 0.9 | 1.7 | 0.00 | 0.00 | 0.00 | 82 | 1007.7 |
| 20260506234816 | 54 | 238 | 0.0 | 0.9 | 0.00 | 0.00 | 0.00 | 82 | 1007.8 |
| 20260506234322 | 54 | 187 | 0.0 | 1.7 | 0.00 | 0.00 | 0.00 | 83 | 1007.8 |
| 20260506233828 | 54 | 269 | 0.0 | 0.9 | 0.00 | 0.00 | 0.00 | 83 | 1007.7 |
| 20260506233333 | 55 | 298 | 0.0 | 0.9 | 0.00 | 0.00 | 0.00 | 84 | 1007.7 |
| 20260506232839 | 55 | 315 | 0.9 | 2.6 | 0.00 | 0.00 | 0.00 | 84 | 1007.7 |
| 20260506232345 | 55 | 321 | 1.7 | 1.7 | 0.00 | 0.00 | 0.00 | 85 | 1007.7 |
| 20260506231851 | 55 | 321 | 1.7 | 2.6 | 0.00 | 0.00 | 0.00 | 87 | 1007.7 |
| 20260506231356 | 55 | 307 | 2.6 | 4.3 | 0.00 | 0.00 | 0.00 | 89 | 1007.8 |
| 20260506230902 | 55 | 322 | 3.5 | 4.3 | 0.00 | 0.00 | 0.00 | 90 | 1007.7 |
| 20260506230408 | 55 | 316 | 2.6 | 4.3 | 0.00 | 0.00 | 0.00 | 87 | 1007.7 |
| 20260506225914 | 55 | 300 | 2.6 | 4.3 | 0.00 | 0.00 | 0.00 | 85 | 1007.7 |
| 20260506225420 | 55 | 289 | 2.6 | 3.5 | 0.00 | 0.00 | 0.00 | 81 | 1007.7 |
| 20260506224926 | 55 | 253 | 3.5 | 4.3 | 0.00 | 0.00 | 0.00 | 78 | 1007.7 |
| 20260506224431 | 54 | 255 | 2.6 | 4.3 | 0.00 | 0.00 | 0.00 | 78 | 1007.7 |
| 20260506223937 | 54 | 267 | 2.6 | 5.2 | 0.00 | 0.00 | 0.00 | 79 | 1007.7 |
| 20260506223443 | 54 | 248 | 2.6 | 4.3 | 0.00 | 0.00 | 0.00 | 79 | 1007.7 |
| 20260506222949 | 54 | 225 | 3.5 | 5.2 | 0.00 | 0.00 | 0.00 | 78 | 1007.7 |
| 20260506222455 | 54 | 258 | 2.6 | 5.2 | 0.00 | 0.00 | 0.00 | 80 | 1007.6 |
| 20260506221506 | 54 | 221 | 3.5 | 6.1 | 0.00 | 0.00 | 0.00 | 79 | 1007.7 |
| 20260506221012 | 55 | 224 | 3.5 | 5.2 | 0.00 | 0.00 | 0.00 | 79 | 1007.6 |
| 20260506220518 | 55 | 224 | 2.6 | 3.5 | 0.00 | 0.00 | 0.00 | 81 | 1007.6 |
| 20260506220023 | 55 | 196 | 4.3 | 5.2 | 0.00 | 0.00 | 0.00 | 83 | 1007.6 |
| 20260506215529 | 55 | 180 | 5.2 | 6.1 | 0.00 | 0.00 | 0.00 | 85 | 1007.5 |
| 20260506215035 | 55 | 174 | 4.3 | 5.2 | 0.00 | 0.00 | 0.00 | 86 | 1007.4 |
| 20260506214541 | 55 | 171 | 4.3 | 5.2 | 0.00 | 0.00 | 0.00 | 85 | 1007.4 |
| 20260506214046 | 55 | 174 | 4.3 | 6.1 | 0.00 | 0.00 | 0.00 | 84 | 1007.4 |
| 20260506213552 | 55 | 180 | 4.3 | 6.1 | 0.00 | 0.00 | 0.00 | 83 | 1007.4 |
| 20260506213058 | 56 | 177 | 3.5 | 5.2 | 0.00 | 0.00 | 0.00 | 83 | 1007.6 |
| 20260506212603 | 56 | 180 | 3.5 | 4.3 | 0.00 | 0.00 | 0.00 | 85 | 1007.5 |
| 20260506212109 | 56 | 180 | 3.5 | 4.3 | 0.00 | 0.00 | 0.00 | 84 | 1007.5 |
| 20260506211615 | 56 | 154 | 2.6 | 4.3 | 0.00 | 0.00 | 0.00 | 84 | 1007.4 |
| 20260506211121 | 56 | 164 | 1.7 | 2.6 | 0.00 | 0.00 | 0.00 | 84 | 1007.3 |
| 20260506210627 | 56 | 180 | 2.6 | 3.5 | 0.00 | 0.00 | 0.00 | 82 | 1007.4 |
| 20260506210132 | 56 | 174 | 3.5 | 5.2 | 0.00 | 0.00 | 0.00 | 83 | 1007.4 |
| 20260506205638 | 56 | 199 | 4.3 | 7.0 | 0.00 | 0.00 | 0.00 | 81 | 1007.3 |
| 20260506205143 | 56 | 231 | 5.2 | 7.8 | 0.00 | 0.00 | 0.00 | 79 | 1007.4 |
| 20260506204649 | 57 | 228 | 6.1 | 10.4 | 0.00 | 0.00 | 0.00 | 75 | 1007.4 |
| 20260506204155 | 57 | 248 | 2.6 | 4.3 | 0.00 | 0.00 | 0.00 | 71 | 1007.3 |
| 20260506203700 | 57 | 267 | 1.7 | 2.6 | 0.00 | 0.00 | 0.00 | 73 | 1007.1 |
| 20260506203206 | 57 | 316 | 0.9 | 0.9 | 0.00 | 0.00 | 0.00 | 75 | 1006.8 |
| 20260506202712 | 57 | 344 | 0.9 | 1.7 | 0.00 | 0.00 | 0.00 | 76 | 1006.6 |
| 20260506202217 | 57 | 327 | 0.9 | 1.7 | 0.00 | 0.00 | 0.00 | 76 | 1006.3 |
| 20260506201723 | 57 | 357 | 1.7 | 1.7 | 0.00 | 0.00 | 0.00 | 76 | 1006.2 |
| 20260506201229 | 57 | 14 | 1.7 | 2.6 | 0.00 | 0.00 | 0.00 | 75 | 1006.1 |
| 20260506200734 | 57 | 282 | 1.7 | 3.5 | 0.00 | 0.00 | 0.00 | 74 | 1006.3 |
| 20260506195746 | 57 | 237 | 4.3 | 6.1 | 0.00 | 0.00 | 0.00 | 70 | 1006.7 |
| 20260506195251 | 58 | 197 | 3.5 | 4.3 | 0.00 | 0.00 | 0.00 | 69 | 1006.5 |
| 20260506194757 | 58 | 158 | 2.6 | 3.5 | 0.00 | 0.00 | 0.00 | 72 | 1006.3 |
| 20260506194302 | 58 | 135 | 2.6 | 3.5 | 0.00 | 0.00 | 0.00 | 73 | 1006.1 |
| 20260506193808 | 58 | 126 | 0.9 | 2.6 | 0.00 | 0.00 | 0.00 | 68 | 1006.0 |
| 20260506193313 | 58 | 113 | 2.6 | 3.5 | 0.00 | 0.00 | 0.00 | 68 | 1006.0 |
| 20260506192819 | 58 | 61 | 2.6 | 4.3 | 0.00 | 0.00 | 0.00 | 64 | 1006.1 |
| 20260506192325 | 58 | 59 | 2.6 | 3.5 | 0.00 | 0.00 | 0.00 | 65 | 1006.1 |
| 20260506191830 | 58 | 78 | 1.7 | 2.6 | 0.00 | 0.00 | 0.00 | 65 | 1006.0 |
| 20260506190842 | 58 | 2 | 1.7 | 3.5 | 0.00 | 0.00 | 0.00 | 64 | 1006.2 |
| 20260506190347 | 58 | 0 | 1.7 | 2.6 | 0.00 | 0.00 | 0.00 | 62 | 1006.2 |
| 20260506185853 | 58 | 357 | 2.6 | 2.6 | 0.00 | 0.00 | 0.00 | 63 | 1006.2 |
| 20260506185358 | 58 | 342 | 3.5 | 4.3 | 0.00 | 0.00 | 0.00 | 64 | 1006.1 |
| 20260506184904 | 58 | 357 | 2.6 | 2.6 | 0.00 | 0.00 | 0.00 | 64 | 1005.9 |
| 20260506184409 | 58 | 353 | 2.6 | 3.5 | 0.00 | 0.00 | 0.00 | 65 | 1005.8 |
| 20260506183915 | 59 | 327 | 2.6 | 4.3 | 0.00 | 0.00 | 0.00 | 64 | 1005.8 |
| 20260506183421 | 59 | 334 | 1.7 | 2.6 | 0.00 | 0.00 | 0.00 | 64 | 1005.7 |
| 20260506182926 | 60 | 338 | 2.6 | 4.3 | 0.00 | 0.00 | 0.00 | 63 | 1005.6 |
| 20260506182432 | 60 | 324 | 2.6 | 3.5 | 0.00 | 0.00 | 0.00 | 63 | 1005.5 |
| 20260506181937 | 60 | 324 | 2.6 | 3.5 | 0.00 | 0.00 | 0.00 | 62 | 1005.3 |